M0PSX-13 Weather Reports


Display with metric or nautical units.
time (UTC)temp
F
wind
direction
speed
MPH
gust
MPH
rain 1hr
in
rain 24hr
in
rain mn
in
humidity
%
barometer
mb
20260507065004 49 338 2.0 2.0 0.00 0.00 0.00 85 1015.5
20260507063005 49 342 0.0 2.0 0.00 0.00 0.00 86 1015.6
20260507062005 48 340 0.0 2.0 0.00 0.00 0.00 87 1015.5
20260507061004 48 341 0.0 2.0 0.00 0.00 0.00 87 1015.3
20260507060004 48 345 0.0 2.0 0.00 0.00 0.00 88 1015.5
20260507054004 47 1 0.0 2.0 0.00 0.00 0.00 88 1015.3
20260507053007 47 354 0.0 2.0 0.00 0.00 0.00 88 1015.1
20260507052004 47 1 0.0 2.0 0.00 0.00 0.00 88 1015.3
20260507050005 47 0 0.0 0.0 0.00 0.00 0.00 88 1015.0
20260507045005 47 1 0.0 2.0 0.00 0.00 0.00 88 1015.1
20260507044004 47 341 0.0 2.0 0.00 0.00 0.00 88 1014.9
20260507043005 47 354 0.0 2.0 0.00 0.00 0.00 88 1014.9
20260507042004 47 346 0.0 2.0 0.00 0.00 0.00 87 1014.8
20260507040005 47 337 0.0 2.0 0.00 0.00 0.00 87 1014.7
20260507035004 47 350 0.0 2.0 0.00 0.00 0.00 87 1014.9
20260507034004 47 1 0.0 2.0 0.00 0.00 0.00 87 1014.7
20260507033004 47 345 0.0 2.0 0.00 0.00 0.00 87 1014.7
20260507032004 47 343 1.0 2.0 0.00 0.00 0.00 86 1014.7
20260507031004 47 347 2.0 2.0 0.00 0.00 0.00 86 1014.9
20260507030004 48 1 0.0 2.0 0.00 0.00 0.00 86 1014.6
20260507025004 48 337 0.0 2.0 0.00 0.00 0.00 85 1014.6
20260507023005 47 347 1.0 2.0 0.00 0.00 0.00 85 1014.6
20260507022005 48 346 1.0 2.0 0.00 0.00 0.00 85 1014.6
20260507021005 48 342 0.0 2.0 0.00 0.00 0.00 85 1014.2
20260507020005 48 338 0.0 2.0 0.00 0.00 0.00 85 1014.5
20260507015004 48 352 0.0 2.0 0.00 0.00 0.00 85 1014.4
20260507014005 48 341 0.0 2.0 0.00 0.00 0.00 85 1014.3
20260507013005 48 345 0.0 2.0 0.00 0.00 0.00 85 1014.3
20260507011004 48 342 0.0 2.0 0.00 0.00 0.00 85 1014.3
20260507010004 48 350 0.0 2.0 0.00 0.00 0.00 85 1014.3
20260507005005 48 339 0.0 2.0 0.00 0.00 0.00 85 1014.4
20260507004012 48 345 0.0 2.0 0.00 0.00 0.00 85 1014.2
20260507002004 48 342 0.0 2.0 0.00 0.00 0.00 85 1014.4
20260507001004 48 344 0.0 2.0 0.00 0.00 0.00 85 1014.4
20260506235004 49 0 0.0 0.0 0.00 0.00 0.00 84 1014.5
20260506234004 49 0 0.0 0.0 0.00 0.00 0.00 84 1014.3
20260506233005 49 0 0.0 0.0 0.00 0.00 0.00 84 1014.2
20260506232005 49 337 0.0 2.0 0.00 0.00 0.00 84 1014.5
20260506231004 49 0 0.0 0.0 0.00 0.00 0.00 84 1014.4
20260506225005 49 1 0.0 2.0 0.00 0.00 0.00 85 1014.3
20260506224004 49 350 0.0 2.0 0.00 0.00 0.00 85 1014.4
20260506223004 49 0 0.0 0.0 0.00 0.00 0.00 85 1014.0
20260506222004 49 337 0.0 2.0 0.00 0.00 0.00 85 1014.1
20260506221005 49 340 0.0 2.0 0.00 0.00 0.00 86 1013.9
20260506220004 49 337 1.0 2.0 0.00 0.00 0.00 86 1013.9
20260506215006 49 339 1.0 2.0 0.00 0.00 0.00 86 1014.1
20260506213004 50 338 0.0 2.0 0.00 0.00 0.00 86 1013.9
20260506211005 50 345 0.0 2.0 0.00 0.00 0.00 86 1013.7
20260506210005 50 1 0.0 2.0 0.00 0.00 0.00 85 1013.8
20260506205004 50 346 0.0 2.0 0.00 0.00 0.00 85 1013.8
20260506204004 50 338 0.0 2.0 0.00 0.00 0.00 85 1013.8
20260506203004 50 342 1.0 2.0 0.00 0.00 0.00 85 1013.5
20260506202004 50 337 1.0 2.0 0.00 0.00 0.00 85 1013.5
20260506201004 50 339 2.0 2.0 0.00 0.00 0.00 84 1013.4
20260506200005 50 339 0.0 2.0 0.00 0.00 0.00 83 1013.4
20260506194005 50 338 2.0 4.0 0.00 0.00 0.00 82 1013.4
20260506193005 51 337 1.0 4.0 0.00 0.00 0.00 80 1013.2
20260506192004 51 343 1.0 2.0 0.00 0.00 0.00 79 1012.9
20260506191004 51 0 0.0 0.0 0.00 0.00 0.00 78 1012.9
20260506190006 51 0 0.0 0.0 0.00 0.00 0.00 78 1012.8
20260506185004 51 0 0.0 0.0 0.00 0.00 0.00 78 1012.8
20260506183005 51 0 0.0 0.0 0.00 0.00 0.00 78 1012.8
20260506182005 51 349 0.0 2.0 0.00 0.00 0.00 78 1012.6
20260506181004 51 0 0.0 0.0 0.00 0.00 0.00 78 1012.6
20260506180005 51 345 0.0 2.0 0.00 0.00 0.00 78 1012.3
20260506175005 51 337 0.0 2.0 0.00 0.00 0.00 79 1012.3
20260506173005 52 337 0.0 2.0 0.00 0.00 0.00 79 1012.2
20260506172004 51 338 0.0 2.0 0.00 0.00 0.00 79 1012.1
20260506170004 52 339 2.0 2.0 0.00 0.00 0.00 79 1012.1
20260506165005 52 337 1.0 4.0 0.00 0.00 0.00 77 1012.0
20260506164005 52 337 1.0 4.0 0.00 0.00 0.00 77 1012.1
20260506163005 52 343 1.0 4.0 0.00 0.00 0.00 78 1012.2
20260506162005 52 339 1.0 2.0 0.00 0.00 0.00 79 1012.2
20260506161005 53 337 0.0 2.0 0.00 0.00 0.00 78 1012.2
20260506155004 52 337 1.0 4.0 0.00 0.00 0.00 77 1011.9
20260506154005 52 338 2.0 2.0 0.00 0.00 0.00 78 1012.1
20260506153006 52 338 1.0 2.0 0.00 0.00 0.00 78 1012.1
20260506152005 52 338 1.0 2.0 0.00 0.00 0.00 79 1012.0
20260506151004 52 337 0.0 2.0 0.00 0.00 0.00 80 1012.2
20260506150005 52 342 0.0 2.0 0.00 0.00 0.00 80 1012.1
20260506144004 51 338 2.0 4.0 0.00 0.00 0.00 82 1011.7
20260506143004 51 338 0.0 2.0 0.00 0.00 0.00 84 1011.9
20260506141005 52 337 0.0 4.0 0.00 0.00 0.00 81 1011.8
20260506135005 54 343 1.0 2.0 0.00 0.00 0.00 72 1011.8
20260506134005 54 347 0.0 2.0 0.00 0.00 0.00 72 1011.5
20260506133004 54 337 0.0 2.0 0.00 0.00 0.00 73 1011.7
20260506132005 53 343 1.0 2.0 0.00 0.00 0.00 73 1011.7
20260506131005 53 0 0.0 0.0 0.00 0.00 0.00 75 1011.8
20260506130005 53 338 0.0 2.0 0.00 0.00 0.00 75 1011.8
20260506125004 52 1 0.0 2.0 0.00 0.00 0.00 75 1012.0
20260506124005 52 352 0.0 2.0 0.00 0.00 0.00 73 1011.8
20260506123005 53 338 1.0 2.0 0.00 0.00 0.00 71 1011.7
20260506122005 53 342 1.0 2.0 0.00 0.00 0.00 72 1011.8
20260506115004 53 337 0.0 2.0 0.00 0.00 0.00 71 1011.8
20260506114005 53 351 0.0 2.0 0.00 0.00 0.00 72 1011.5
20260506113005 54 352 0.0 4.0 0.00 0.00 0.00 70 1011.8
20260506112005 55 355 1.0 4.0 0.00 0.00 0.00 67 1011.5
20260506110004 55 348 2.0 4.0 0.00 0.00 0.00 64 1011.5
20260506105004 56 6 0.0 2.0 0.00 0.00 0.00 66 1011.4
20260506104004 56 353 0.0 2.0 0.00 0.00 0.00 65 1011.5
20260506102004 54 347 0.0 2.0 0.00 0.00 0.00 68 1011.5
20260506101005 54 343 0.0 6.0 0.00 0.00 0.00 69 1011.7
20260506095004 53 351 1.0 4.0 0.00 0.00 0.00 71 1011.7
20260506094004 53 344 1.0 4.0 0.00 0.00 0.00 70 1011.4
20260506093004 54 354 0.0 4.0 0.00 0.00 0.00 70 1011.6
20260506092004 52 344 1.0 4.0 0.00 0.00 0.00 72 1011.6
20260506091004 53 353 0.0 2.0 0.00 0.00 0.00 72 1011.5
20260506090004 53 356 0.0 2.0 0.00 0.00 0.00 72 1011.5
20260506084004 50 356 0.0 4.0 0.00 0.00 0.00 76 1011.4
20260506073004 49 2 1.0 2.0 0.00 0.00 0.00 81 1011.3
20260506072004 49 2 0.0 2.0 0.00 0.00 0.00 81 1011.4
20260506071005 49 3 0.0 2.0 0.00 0.00 0.00 81 1011.4